Home   Weather   Reston   Past weeks

Flag for USA Past Weather in Reston, Virginia, USA — Yesterday and Last 2 Weeks

52 °F


Feels Like: 49 °F
Forecast: 47 / 64 °F
Wind: 8 mph from South

Location: Washington-Dulles International Airport

Current Time: Oct 23, 2016 at 11:33:08 PM

Latest Report: Oct 23, 2016 at 10:52 PM

Visibility: 10 mi

Pressure: 29.94 "Hg

Humidity: 75%

Dew Point: 44 °F

Location of RestonLocation

Past Weather in Reston — Graph


Reston Temperature Yesterday

Maximum temperature yesterday: 57 °F (at 12:52 PM)
Minimum temperature yesterday: 49 °F (at 9:52 PM)
Average temperature yesterday: 53 °F

High & Low Weather Summary for the Past Weeks

High86 °F (Oct 19, 1:52 PM)100% (Oct 16, 8:52 AM)30.48 "Hg (Oct 16, 8:52 AM)
Low37 °F (Oct 11, 3:52 AM)31% (Oct 23, 4:52 PM)29.58 "Hg (Oct 21, 3:52 PM)
Average60 °F68%30.09 "Hg
* Reported Oct 8 9:52 PM — Oct 23 9:52 PM, Reston, Weather by CustomWeather, © 2016

Note: Actual official high and low records may vary slightly from our data, if they occured in-between our weather recording intervals... More about our weather records


Reston Weather History for the Previous 24 Hours

Scroll right to see more
Time TempWeatherWind HumidityBarometerVisibility
9:52 PM
Sun, Oct 23
53 °FClear.8 mph72%29.96 "Hg10 mi
8:52 PM56 °FClear.6 mph62%29.96 "Hg10 mi
7:52 PM58 °FClear.6 mph58%29.98 "Hg10 mi
6:52 PM61 °FClear.8 mph50%29.98 "Hg10 mi
5:52 PM65 °FSunny.7 mph44%29.97 "Hg10 mi
4:52 PM70 °FPassing clouds.8 mph31%29.96 "Hg10 mi
3:52 PM70 °FScattered clouds.16 mph32%29.96 "Hg10 mi
2:52 PM68 °FScattered clouds.9 mph39%29.98 "Hg10 mi
1:52 PM64 °FScattered clouds.10 mph41%30.00 "Hg10 mi
12:52 PM60 °FPartly sunny.12 mph46%30.03 "Hg10 mi
11:52 AM59 °FScattered clouds.10 mph46%30.04 "Hg10 mi
10:52 AM55 °FPartly sunny.15 mph51%30.04 "Hg10 mi
9:52 AM55 °FPassing clouds.12 mph49%30.04 "Hg10 mi
8:52 AM51 °FPassing clouds.9 mph54%30.04 "Hg10 mi
7:52 AM46 °FPassing clouds.9 mph66%30.02 "Hg10 mi
6:52 AM44 °FPassing clouds.5 mph68%30.01 "Hg10 mi
5:52 AM43 °FClear.8 mph68%29.99 "Hg10 mi
4:52 AM48 °FClear.6 mph56%29.98 "Hg10 mi
3:52 AM48 °FPassing clouds.10 mph54%29.98 "Hg10 mi
2:52 AM47 °FPassing clouds.14 mph54%29.96 "Hg10 mi
1:52 AM48 °FClear.12 mph52%29.94 "Hg10 mi
12:52 AM47 °FPassing clouds.10 mph52%29.94 "Hg10 mi
11:52 PM
Sat, Oct 22
49 °FPassing clouds.20 mph46%29.92 "Hg10 mi
Weather by CustomWeather, © 2016

See weather overviewHow to use our weather pages